Marshfield, WI

11:19 PM CDT on August 28, 2016 (GMT -0500)
Marshfield Municipal

Weather History for KMFI - February, 2013

Change the Weather History Date:

Monday, February 18, 2013

  Actual Average Record
Temperature  
Mean Temperature 29 °F -  
Max Temperature 37 °F 31 °F 55 °F (1981)
Min Temperature 19 °F 13 °F -25 °F (1929)
Degree Days  
Heating Degree Days 36    
Moisture  
Dew Point 23 °F    
Average Humidity 81    
Maximum Humidity 93    
Minimum Humidity 67    
Precipitation  
Precipitation 0.00 in - - ()
Sea Level Pressure  
Sea Level Pressure 29.57 in    
Wind  
Wind Speed 10 mph (WSW)    
Max Wind Speed 21 mph    
Max Gust Speed 31 mph    
Visibility 7 miles    
Events Snow    
Averages and records for this station are not official NWS values.
T = Trace of Precipitation, MM = Missing Value Source: NWS Daily Summary

Daily Weather History Graph

Daily Weather History Graph

Search for Another Location

Airport or City:

Trip Planner

Search our weather history database for the weather conditions in past years. The results will help you decide how hot, cold, wet, or windy it might be!

Date:

Astronomy

Feb. 18, 2013 Rise Set
Actual Time 6:55 AM CST 5:33 PM CST
Civil Twilight 6:26 AM CST 6:03 PM CST
Nautical Twilight 5:52 AM CST 6:37 PM CST
Astronomical Twilight 5:18 AM CST 7:11 PM CST
Moon 11:12 AM CST (2/18) 1:42 AM CST (2/18)
Length of Visible Light 11h 37m
Length of Day
10h 38m
First Quarter, 58% of the Moon is Illuminated
Feb 18
First Quarter
Feb 25
Full
Mar 4
Last Quarter
Mar 11
New
Mar 19
First Quarter

Hourly Weather History & Observations

Time (CST) Temp. Windchill Dew Point Humidity Pressure Visibility Wind Dir Wind Speed Gust Speed Precip Events Conditions
12:54 AM 21.0 °F 8.1 °F 12.9 °F 71% 29.84 in 10.0 mi SE 13.8 mph - N/A   Partly Cloudy
1:54 AM 21.9 °F 10.4 °F 15.1 °F 75% 29.79 in 10.0 mi SE 11.5 mph - N/A   Mostly Cloudy
2:54 AM 23.0 °F 10.1 °F 16.0 °F 74% 29.75 in 10.0 mi SE 15.0 mph 23.0 mph N/A   Partly Cloudy
3:54 AM 23.0 °F 11.7 °F 17.1 °F 78% 29.72 in 10.0 mi SE 11.5 mph - N/A   Clear
4:54 AM 21.0 °F 11.4 °F 16.0 °F 81% 29.71 in 10.0 mi ESE 8.1 mph - N/A   Clear
5:54 AM 21.0 °F 12.4 °F 16.0 °F 81% 29.68 in 10.0 mi ESE 6.9 mph - N/A   Clear
6:54 AM 21.0 °F 11.4 °F 16.0 °F 81% 29.65 in 9.0 mi SE 8.1 mph - N/A   Clear
7:54 AM 21.0 °F 12.4 °F 16.0 °F 81% 29.65 in 8.0 mi SE 6.9 mph - N/A   Clear
8:54 AM 23.0 °F 14.7 °F 18.0 °F 81% 29.63 in 8.0 mi SE 6.9 mph - N/A   Clear
9:54 AM 27.0 °F 18.7 °F 21.0 °F 78% 29.61 in 10.0 mi SSE 8.1 mph - N/A   Clear
10:54 AM 30.0 °F 24.1 °F 23.0 °F 75% 29.59 in 10.0 mi SSE 5.8 mph - N/A   Clear
11:54 AM 33.1 °F 25.5 °F 25.0 °F 72% 29.57 in 10.0 mi SSE 9.2 mph - N/A   Clear
12:54 PM 35.1 °F 28.6 °F 26.1 °F 70% 29.53 in 10.0 mi South 8.1 mph - N/A   Clear
1:54 PM 36.0 °F 32.1 °F 27.0 °F 70% 29.52 in 10.0 mi South 4.6 mph - N/A   Partly Cloudy
2:11 PM 35.6 °F 29.9 °F 26.6 °F 70% 29.47 in 10.0 mi SW 6.9 mph - N/A   Mostly Cloudy
2:54 PM 37.0 °F 32.4 °F 27.0 °F 67% 29.52 in 10.0 mi WNW 5.8 mph - N/A   Overcast
3:54 PM 36.0 °F 31.1 °F 27.0 °F 70% 29.53 in 8.0 mi WNW 5.8 mph - N/A   Overcast
4:07 PM 35.6 °F 29.9 °F 28.4 °F 75% 29.49 in 1.8 mi WNW 6.9 mph - 0.00 in Snow Light Snow
4:25 PM 33.8 °F 28.6 °F 28.4 °F 81% 29.49 in 1.0 mi WNW 5.8 mph - 0.00 in Snow Light Snow
4:44 PM 33.8 °F 29.6 °F 30.2 °F 87% 29.48 in 1.5 mi West 4.6 mph - 0.00 in Snow Light Snow
4:54 PM 33.1 °F 28.7 °F 30.0 °F 89% 29.53 in 2.0 mi West 4.6 mph - 0.00 in Snow Light Snow
5:10 PM 33.8 °F 28.6 °F 30.2 °F 87% 29.49 in 3.0 mi West 5.8 mph - 0.00 in   Overcast
5:36 PM 33.8 °F 28.6 °F 30.2 °F 87% 29.48 in 2.0 mi WNW 5.8 mph - 0.00 in Snow Light Snow
5:54 PM 32.0 °F 24.8 °F 30.0 °F 92% 29.53 in 3.0 mi NW 8.1 mph - 0.00 in Snow Light Snow
6:14 PM 32.0 °F 25.6 °F 30.2 °F 93% 29.49 in 3.0 mi WNW 6.9 mph - 0.00 in Snow Light Snow
6:54 PM 30.9 °F 20.2 °F 27.0 °F 85% 29.55 in 8.0 mi WNW 15.0 mph - 0.00 in   Overcast
7:40 PM 30.2 °F 18.1 °F 26.6 °F 86% 29.49 in 7.0 mi NW 18.4 mph - N/A   Overcast
7:54 PM 30.0 °F 17.2 °F 26.1 °F 85% 29.54 in 4.0 mi NW 20.7 mph 27.6 mph 0.00 in Snow Light Snow
8:34 PM 28.4 °F 15.8 °F 26.6 °F 93% 29.47 in 3.0 mi WNW 18.4 mph - 0.00 in Snow Light Snow
8:54 PM 27.0 °F 13.5 °F 24.1 °F 89% 29.54 in 5.0 mi WNW 19.6 mph 28.8 mph 0.00 in   Overcast
9:54 PM 24.1 °F 12.0 °F 21.0 °F 88% 29.54 in 6.0 mi West 13.8 mph 26.5 mph N/A   Overcast
10:54 PM 21.0 °F 6.2 °F 18.0 °F 88% 29.54 in 4.0 mi WNW 18.4 mph 31.1 mph N/A   Overcast
11:54 PM 19.9 °F 4.8 °F 17.1 °F 89% 29.55 in 5.0 mi WNW 18.4 mph 25.3 mph N/A   Overcast